Location: Buckeye Ditch
(40.9104°N, 122.9517°W)
Time: 18:39:21
(UTC+00:00)

Vanguard 1 - Pass Details

Date: 25 May 2025
Orbit: 649 x 3822 km, 34.3° (Epoch: 15 June)

Event Time Altitude Azimuth Distance (km) Brightness Sun altitude
Rises 05:57:09 0° 279° (W) 5,981 14.7 -21.0°
Reaches altitude 10° 06:02:29 10° 270° (W) 4,373 13.7 -21.5°
Maximum altitude 06:10:45 26° 220° (SW) 2,386 11.8 -22.3°
Enters shadow 06:12:38 23° 198° (SSW) 2,302 11.6 -22.5°
